Hourly Data Report for September 08, 2017

All times are specified in Local Standard Time (LST). Add 1 hour to adjust for Daylight Saving Time where and when it is observed.

ALGONQUIN PARK EAST GATE
ONTARIO

45°32'00.000" N
78°16'00.000" W
397.00 m
6080192
71581
TNK

Download Data

Hourly Data (September 2017)
Hourly Data Report for September 8, 2017
Temp Definition
°C
Dew Point Temp Definition
°C
Rel Hum Definition
%
Wind Dir Definition
10's deg

Wind Spd Definition
km/h
Visibility Definition
km
Stn Press Definition
kPa
Hmdx Definition


Wind Chill Definition


Weather Definition


TIME
00:00 9.3 7.1 86 LegendMM LegendMM   96.52     LegendNANA
01:00 9.6 7.3 86 LegendMM LegendMM   96.55     LegendNANA
02:00 9.1 7.5 90 LegendMM LegendMM   96.61     LegendNANA
03:00 8.8 7.3 90 LegendMM LegendMM   96.65     LegendNANA
04:00 8.7 7.2 90 LegendMM LegendMM   96.71     LegendNANA
05:00 8.6 7.1 91 LegendMM LegendMM   96.77     LegendNANA
06:00 8.5 7.1 91 LegendMM LegendMM   96.88     LegendNANA
07:00 8.6 7.1 90 LegendMM LegendMM   96.96     LegendNANA
08:00 8.8 6.9 88 LegendMM LegendMM   97.05     LegendNANA
09:00 9.2 6.6 84 LegendMM LegendMM   97.15     LegendNANA
10:00 10.3 7.2 81 LegendMM LegendMM   97.21     LegendNANA
11:00 9.8 6.5 80 LegendMM LegendMM   97.28     LegendNANA
12:00 10.2 7.1 81 LegendMM LegendMM   97.33     LegendNANA
13:00 10.9 7.2 78 LegendMM LegendMM   97.40     LegendNANA
14:00 11.8 6.7 71 LegendMM LegendMM   97.43     LegendNANA
15:00 10.9 5.8 71 LegendMM LegendMM   97.49     LegendNANA
16:00 10.9 6.2 72 LegendMM LegendMM   97.52     LegendNANA
17:00 10.8 6.2 73 LegendMM LegendMM   97.57     LegendNANA
18:00 9.9 5.2 73 LegendMM LegendMM   97.63     LegendNANA
19:00 8.6 5.9 83 LegendMM LegendMM   97.69     LegendNANA
20:00 8.3 6.4 88 LegendMM LegendMM   97.76     LegendNANA
21:00 8.8 5.6 80 LegendMM LegendMM   97.80     LegendNANA
22:00 8.5 4.5 76 LegendMM LegendMM   97.84     LegendNANA
23:00 6.0 4.0 87 LegendMM LegendMM   97.91     LegendNANA

Notes on Data Quality.

Legend

  • E = Estimated
  • M = Missing
  • NA = Not Available
  • ‡ = Partner data that is not subject to review by the National Climate Archives
Date modified: